Temperature
18 18 18 18 18 18 18 18 17 17 17 18 18 18 17 17 17 17 17 17 17 17 17 17 16 16 16 16 16 16 16 15 15 15 15 15 15 15
18 18 18 18 18 18 18 18 17 17 17 17 17 17 17 17 17 17 17 17 17 16 16 16 16 16 16 16 16 16 15 15 15 15 15 15 15 15
18 18 18 18 18 18 18 17 17 17 17 17 17 17 17 17 17 17 17 17 17 16 16 16 16 16 16 16 16 15 15 15 15 15 15 15 15 14
18 18 17 17 17 17 17 17 17 17 17 17 17 17 17 17 16 16 16 16 16 16 16 16 16 15 15 15 15 15 15 15 15 15 14 14 14 14
18 17 17 17 17 17 17 17 17 17 17 17 17 17 17 16 16 16 16 16 16 16 16 15 15 15 15 15 15 15 15 15 14 14 14 14 14 14
17 17 17 17 17 17 17 17 17 17 17 16 16 16 16 16 16 16 16 16 16 16 15 15 15 15 15 15 15 14 14 14 14 14 14 14 14 14
17 17 17 17 17 17 16 16 16 16 16 16 16 16 16 16 16 16 16 15 15 15 15 15 15 15 15 15 14 14 14 14 14 14 14 14 13 13
17 17 17 16 16 16 16 16 16 16 16 16 16 16 16 16 15 15 15 15 15 15 15 15 15 15 15 14 14 14 14 14 14 14 14 13 13 13
17 17 16 16 16 16 16 16 16 16 16 16 15 16 16 16 15 15 15 15 15 15 15 15 15 15 14 14 14 14 14 13 13 13 13 13 13 13
16 16 16 16 16 16 16 16 15 15 15 15 15 15 15 15 15 15 15 14 14 14 14 14 14 14 14 14 14 14 13 13 13 13 13 12 12 12
15 15 15 15 15 15 15 15 15 15 15 15 15 15 15 14 14 14 14 14 14 14 14 14 14 14 14 14 14 13 13 13 13 13 12 12 12 12
15 15 15 15 15 15 14 14 14 14 14 14 14 14 14 14 14 14 14 13 13 13 13 13 13 13 13 13 13 13 13 13 13 12 12 12 11 11
14 14 14 14 14 14 14 14 14 14 14 14 14 14 13 13 13 13 13 13 13 13 13 13 13 13 13 13 13 13 12 12 12 12 12 11 11 11
14 14 14 14 14 13 13 13 13 13 13 13 13 13 13 13 13 13 13 13 13 13 13 13 13 13 12 12 12 12 12 12 12 12 11 11 11 10
13 13 13 13 13 13 13 13 13 13 13 13 13 13 13 13 13 13 13 13 12 12 12 12 12 12 12 12 12 12 12 12 11 11 11 11 11 10
13 13 13 12 12 12 12 12 12 12 12 12 12 12 12 12 12 12 12 12 12 12 12 12 12 12 12 12 12 12 12 11 11 11 11 10 10 10
12 12 12 12 12 12 12 12 12 11 11 12 12 12 12 12 12 12 12 12 12 12 12 12 12 11 11 11 11 11 11 11 11 11 10 10 10 10
12 12 11 11 11 11 11 11 11 11 11 11 11 11 11 11 11 11 11 11 11 11 11 11 11 11 11 11 11 11 11 10 10 10 10 10 10 9
11 11 11 11 11 11 11 11 11 11 11 11 11 11 11 11 11 11 11 11 11 11 11 11 11 11 11 10 10 10 10 10 10 10 10 9 9 9
11 10 10 10 10 10 10 10 10 10 10 10 10 10 10 10 10 10 10 10 10 10 11 11 11 11 11 10 10 10 10 10 10 10 9 9 9 9
10 10 10 10 10 10 10 10 10 10 10 10 10 10 10 10 10 10 10 10 10 10 10 10 10 10 10 10 10 10 10 9 9 9 9 9 8 8
10 10 9 9 9 9 9 9 9 9 9 9 9 9 9 9 9 9 9 9 9 9 9 9 9 9 9 9 9 9 9 9 9 9 9 9 8 8
9 9 9 9 9 9 9 9 9 9 9 9 9 9 9 9 9 9 9 9 9 9 9 9 9 9 9 9 9 9 9 8 8 8 8 8 8 8
Wind_Speed
5 5 4 3 3 3 3 4 4 3 3 3 2 2 3 5 6 6 6 7 8 9 10 9 9 9 8 8 7 8 8 8 8 8 8 9 10 11
4 4 4 4 3 3 3 3 4 4 4 3 4 3 2 3 6 6 6 7 7 8 9 9 9 8 8 8 8 8 8 8 7 7 7 7 8 8
4 5 5 4 3 3 2 2 3 4 5 4 2 2 2 2 2 4 5 6 6 8 9 9 9 9 8 8 7 7 7 7 6 6 6 6 7 7
6 5 5 4 4 4 3 3 4 4 4 5 2 1 3 3 3 2 3 4 5 7 9 10 9 9 9 9 8 8 7 7 7 7 6 6 6 6
7 6 6 5 5 4 4 4 4 4 3 4 3 2 2 2 2 1 2 2 3 5 7 8 9 9 9 9 9 8 8 8 7 7 7 7 6 6
6 6 6 7 6 6 5 4 4 3 3 3 3 2 2 2 2 2 2 2 3 3 4 6 7 8 9 9 9 9 9 8 8 7 7 7 7 7
4 5 6 6 7 6 5 5 4 4 3 3 3 2 2 2 3 3 3 3 3 2 2 3 4 4 6 8 9 10 10 10 9 8 8 8 8 7
4 4 4 4 5 6 6 6 6 6 5 4 4 4 5 4 4 4 3 2 3 3 3 4 3 4 5 7 9 10 10 10 9 9 8 8 8 8
5 4 3 3 3 3 4 4 5 6 8 7 6 7 6 6 5 5 4 4 5 4 3 4 3 5 5 7 9 10 10 10 9 9 8 8 9 9
4 5 4 3 3 3 3 2 3 4 5 5 6 6 6 6 6 6 6 4 3 2 4 4 3 4 4 5 8 9 10 10 9 9 8 8 8 9
4 4 4 4 4 4 3 3 2 3 4 3 4 5 6 6 5 3 3 2 3 3 3 3 3 2 2 3 6 9 10 9 9 9 8 8 8 7
2 2 4 4 4 4 4 4 4 5 3 3 3 3 3 4 6 6 6 5 3 3 4 3 3 2 2 3 3 4 6 8 9 9 9 8 8 6
2 2 2 3 4 4 5 5 6 5 3 3 3 3 2 2 3 4 5 6 5 5 4 4 3 3 3 2 2 3 4 4 5 6 7 7 8 8
3 2 2 3 4 4 4 5 5 3 2 2 2 3 3 4 4 4 5 5 6 6 5 5 4 4 4 3 3 2 3 4 4 4 4 5 7 8
2 2 2 2 2 2 4 4 3 2 2 2 3 4 4 4 3 2 2 2 3 3 4 4 4 4 4 4 3 3 2 3 4 3 4 4 4 4
1 1 2 2 2 2 2 2 3 3 3 4 4 3 2 2 2 2 2 2 2 3 3 4 5 5 4 4 4 3 3 3 3 4 4 3 4 5
1 0 1 1 1 2 2 2 2 2 3 3 3 3 2 2 2 2 2 2 2 3 3 2 2 3 4 4 3 3 3 3 3 4 3 3 4 5
2 1 2 2 3 3 3 3 2 3 3 3 3 3 3 3 3 2 2 2 3 3 3 3 2 0 1 2 3 4 3 3 3 3 3 4 4 5
2 2 2 3 3 3 3 3 3 4 3 3 3 3 3 3 3 3 3 2 3 3 3 3 3 3 3 4 3 4 5 3 3 3 3 4 5 5
1 2 3 3 3 2 2 3 3 3 2 2 3 3 3 3 3 3 3 4 3 3 2 2 3 4 6 5 3 2 4 4 4 4 3 2 1 1
1 2 2 2 3 2 2 2 2 2 2 2 3 3 2 2 3 3 3 4 3 3 3 4 4 4 2 2 1 1 2 3 5 4 4 3 1 1
2 2 2 2 2 2 2 2 2 2 2 2 3 2 2 2 2 3 3 3 3 3 4 3 1 1 1 2 3 3 2 1 1 2 4 5 4 4
2 2 2 2 2 2 2 2 2 2 2 2 2 2 2 2 2 2 3 3 2 2 2 1 1 1 1 2 3 2 2 2 1 1 2 4 5 6
Wind_Direction
213 211 216 228 223 211 196 182 182 222 259 250 242 230 199 193 195 197 208 210 211 215 215 212 209 208 209 213 218 225 224 220 219 223 230 237 238 240
212 211 219 222 223 214 206 202 191 195 229 240 231 224 204 205 207 201 203 205 212 212 212 208 206 205 203 208 214 217 213 212 217 222 231 237 235 235
224 218 228 220 218 223 212 203 206 197 223 253 236 221 195 200 194 201 206 202 210 212 209 205 205 203 199 202 204 205 206 210 217 226 229 233 231 231
225 224 235 228 221 226 215 220 221 211 206 234 245 226 214 202 198 201 203 204 204 209 207 208 210 208 207 207 207 209 209 211 216 222 228 231 231 233
215 217 224 213 221 222 220 226 227 226 209 209 237 225 222 196 174 200 212 221 208 211 209 215 217 215 212 211 212 213 212 212 216 222 229 232 234 238
216 215 214 211 216 217 222 226 222 215 209 210 231 228 222 210 166 194 230 239 229 202 201 212 217 219 217 217 218 219 218 217 219 223 225 224 228 230
220 218 219 214 210 212 219 217 210 210 209 212 225 222 217 192 211 209 213 226 242 212 205 215 204 211 221 224 224 225 222 218 217 219 221 222 222 223
217 227 228 220 218 217 219 214 205 204 208 211 219 219 224 215 210 203 199 202 249 223 197 230 203 220 220 221 224 222 220 218 216 216 218 218 218 220
213 219 224 226 210 226 228 226 229 223 210 205 214 224 222 215 200 207 211 211 226 217 182 232 217 228 226 227 224 221 222 219 215 215 217 220 218 218
215 206 202 208 209 194 201 220 244 248 234 223 222 230 227 215 201 207 212 221 242 229 178 219 228 231 234 225 221 219 222 220 218 218 220 221 219 218
224 210 196 203 210 183 178 205 248 269 260 241 234 233 225 214 196 178 188 192 243 246 206 202 224 232 239 239 230 224 223 221 218 219 221 222 219 215
228 210 195 192 197 180 187 201 233 257 267 269 263 264 247 235 213 201 200 206 224 244 219 194 206 188 251 251 231 224 224 226 222 222 221 219 210 200
222 234 231 203 202 204 203 214 232 240 243 238 241 248 250 243 238 225 210 204 212 235 216 185 197 189 203 240 248 224 209 213 217 225 224 219 206 196
223 237 248 235 230 231 228 231 241 236 221 222 235 241 244 247 247 239 225 217 217 221 212 189 199 195 193 212 238 232 221 212 202 210 215 213 210 209
218 217 238 248 252 248 237 238 230 213 210 223 235 242 242 243 242 246 243 236 245 234 207 197 194 196 193 205 208 199 206 220 205 205 203 202 205 200
208 272 284 272 264 260 269 246 221 211 210 228 242 250 251 242 233 219 223 222 233 266 258 221 201 187 200 208 197 203 197 201 205 209 201 207 205 201
155 2 337 319 299 293 283 256 235 224 226 237 238 243 239 231 238 228 213 205 214 236 256 256 229 209 195 186 196 211 203 207 202 197 190 207 223 214
145 197 249 253 250 249 250 255 245 237 236 230 227 224 226 227 235 237 216 205 219 230 234 225 191 163 354 297 211 198 201 205 207 195 183 196 225 230
152 224 244 253 255 246 238 239 246 246 240 232 230 228 226 228 226 226 222 222 227 228 228 217 197 184 208 245 264 208 193 202 191 197 201 203 219 227
199 224 242 250 243 238 242 249 249 247 240 239 245 244 230 225 232 234 228 223 225 231 236 228 212 205 207 217 222 240 206 192 192 200 206 210 238 243
244 245 249 252 253 248 238 241 242 237 236 233 242 246 238 230 237 241 239 233 228 225 229 236 239 223 190 132 127 269 268 224 200 192 185 175 193 207
251 258 264 263 261 256 247 241 236 236 230 229 238 239 233 219 231 242 236 228 232 233 235 241 237 161 149 180 208 221 246 280 251 191 183 181 179 196
252 258 266 266 264 261 251 234 220 233 238 232 232 238 236 232 229 226 232 231 230 234 229 220 204 171 198 196 200 210 219 222 214 218 279 267 235 230
Height
1527 1528 1528 1528 1529 1529 1529 1530 1530 1529 1528 1529 1529 1529 1529 1529 1529 1529 1529 1529 1528 1528 1528 1528 1528 1528 1527 1527 1528 1528 1528 1529 1529 1529 1530 1530 1530 1530
1524 1524 1524 1525 1525 1526 1526 1526 1527 1527 1526 1525 1526 1526 1526 1526 1526 1526 1526 1526 1526 1525 1525 1525 1524 1524 1524 1524 1524 1524 1525 1525 1525 1526 1526 1526 1526 1527
1520 1521 1521 1521 1521 1522 1522 1523 1523 1523 1523 1522 1523 1523 1523 1523 1523 1523 1523 1523 1523 1522 1522 1522 1522 1522 1521 1521 1521 1521 1522 1522 1522 1522 1522 1523 1523 1523
1516 1517 1517 1517 1517 1518 1518 1519 1519 1519 1519 1519 1519 1520 1520 1520 1520 1521 1520 1520 1520 1520 1519 1519 1519 1519 1519 1518 1518 1518 1519 1519 1519 1519 1519 1519 1519 1519
1512 1512 1513 1513 1513 1514 1514 1515 1515 1516 1516 1516 1515 1516 1516 1517 1517 1517 1517 1517 1517 1517 1517 1516 1516 1516 1516 1516 1515 1515 1516 1516 1516 1516 1515 1515 1515 1515
1507 1508 1508 1508 1509 1510 1510 1510 1511 1512 1512 1512 1512 1512 1513 1513 1514 1513 1513 1514 1514 1514 1513 1513 1513 1513 1513 1512 1512 1512 1512 1512 1512 1512 1512 1511 1511 1511
1502 1503 1504 1504 1504 1505 1506 1506 1507 1507 1507 1508 1508 1508 1509 1509 1509 1509 1509 1509 1510 1510 1510 1510 1509 1509 1509 1509 1509 1509 1509 1509 1508 1508 1508 1508 1508 1507
1498 1499 1499 1499 1500 1501 1502 1503 1503 1503 1503 1503 1504 1504 1504 1505 1506 1506 1506 1506 1505 1506 1506 1506 1506 1505 1505 1505 1505 1505 1505 1505 1505 1505 1504 1504 1504 1504
1494 1494 1494 1495 1495 1496 1497 1498 1498 1498 1499 1499 1499 1499 1500 1501 1502 1502 1502 1501 1501 1502 1502 1501 1501 1501 1502 1502 1502 1502 1501 1501 1501 1501 1501 1500 1500 1500
1489 1489 1490 1490 1491 1491 1492 1492 1493 1493 1494 1494 1495 1495 1496 1497 1497 1498 1498 1498 1497 1498 1498 1497 1497 1497 1497 1498 1498 1498 1498 1497 1497 1497 1497 1497 1497 1496
1484 1484 1485 1485 1486 1487 1487 1487 1488 1488 1489 1490 1490 1491 1491 1492 1492 1493 1493 1493 1492 1492 1493 1493 1493 1493 1493 1493 1493 1494 1494 1493 1493 1493 1493 1493 1493 1493
1479 1479 1480 1481 1481 1482 1482 1482 1483 1483 1484 1484 1485 1486 1487 1487 1488 1488 1488 1488 1488 1487 1488 1489 1488 1489 1488 1488 1489 1489 1489 1489 1489 1489 1489 1489 1489 1489
1474 1475 1475 1476 1476 1477 1477 1478 1478 1479 1479 1480 1480 1481 1481 1482 1483 1483 1483 1483 1483 1483 1484 1484 1484 1484 1484 1484 1484 1484 1485 1485 1485 1485 1485 1485 1485 1485
1471 1471 1471 1472 1472 1472 1472 1472 1473 1474 1475 1475 1475 1475 1476 1477 1478 1478 1478 1478 1479 1479 1480 1480 1479 1479 1480 1479 1480 1480 1481 1481 1481 1481 1481 1481 1481 1481
1468 1468 1468 1468 1469 1469 1468 1468 1469 1470 1470 1470 1470 1471 1472 1473 1473 1473 1473 1474 1474 1474 1475 1475 1475 1475 1476 1475 1475 1476 1476 1476 1477 1477 1477 1477 1477 1477
1464 1464 1465 1465 1465 1465 1465 1465 1465 1466 1466 1466 1466 1467 1467 1468 1468 1468 1468 1469 1469 1469 1470 1471 1471 1471 1471 1471 1472 1471 1472 1472 1473 1473 1473 1473 1473 1473
1460 1461 1461 1461 1461 1460 1461 1461 1461 1461 1461 1461 1462 1462 1463 1463 1464 1464 1464 1464 1465 1465 1465 1466 1467 1467 1467 1467 1467 1467 1468 1468 1469 1469 1470 1469 1469 1469
1457 1457 1457 1457 1456 1456 1456 1456 1456 1457 1457 1457 1457 1457 1458 1459 1459 1459 1460 1460 1460 1460 1461 1461 1462 1462 1463 1462 1463 1463 1464 1464 1465 1465 1465 1465 1465 1465
1454 1453 1453 1453 1452 1452 1452 1452 1452 1452 1453 1453 1453 1453 1454 1454 1455 1455 1455 1456 1456 1456 1456 1457 1457 1457 1457 1457 1458 1459 1460 1460 1460 1461 1461 1461 1461 1461
1450 1450 1450 1449 1448 1448 1447 1447 1447 1448 1448 1448 1448 1448 1449 1449 1449 1450 1450 1450 1451 1451 1452 1452 1452 1453 1453 1454 1454 1454 1455 1456 1456 1456 1456 1457 1457 1457
1446 1446 1446 1445 1444 1444 1443 1443 1442 1443 1443 1443 1443 1443 1444 1444 1444 1445 1445 1446 1446 1447 1447 1447 1448 1449 1450 1450 1450 1449 1451 1452 1452 1452 1452 1452 1452 1452
1443 1443 1442 1441 1441 1440 1439 1439 1438 1438 1438 1439 1439 1439 1439 1439 1440 1440 1441 1441 1442 1442 1443 1443 1444 1445 1445 1445 1445 1445 1446 1447 1448 1448 1449 1449 1448 1448
1440 1440 1439 1438 1437 1436 1435 1433 1433 1433 1434 1434 1434 1435 1435 1435 1436 1436 1436 1437 1437 1437 1438 1439 1440 1441 1441 1442 1442 1442 1443 1443 1443 1444 1445 1445 1445 1446